Showing default

ION SCV-014, 62630

Orbit data source: Space-Track

ION SCV-014, 62630 is a payload satellite owned by D-ORBIT (IT) in SSO that was launched on Tue, 14 Jan 2025 UTC via an FALCON 9 launch vehicle from the Air Force Western Test Range (AFWTR). Payload-class satellites include a variety of spacecraft equipped with specific instruments for various scientific and technological missions. These include communications satellites like Starlink; space stations such as the ISS; scientific satellites like the Hubble; Earth observation satellites from companies like Planet Labs, Umbra, and HawkEye 360; GPS; miniature CubeSats for education and research; and military/defense satellites.

Loading next visibility...
Identifier
62630, 2025-009X
Orbit
SSO
Country
Flag of ITIT
Related business
Manufacturer
D-ORBIT
Mission
Operational Commercial Technology
Bus & Motor
ION-SC, PM200
Mass
220 kg wet, 150 kg dry
Launch date (UTC)
2025-01-14 (1 year ago)
Launch vehicle
FALCON 9
Launch site
Air Force Western Test Range (AFWTR)
Object type
Payload
Rocket body
Debris
Shape & HBR
Box, 1.1 m
Radar Cross Section
0.240 m², Large (>1 m²)

Expand to show TLE details & history
Last TLE update: 9 hours ago

TLE from 9 hours ago
0 ION SCV-014
1 62630U 25009X   26126.16250031  .00001960  00000-0  14199-3 0  9991
2 62630  97.4861 200.5900 0003498 287.4417  72.6428 15.05098071 71662
Epoch: 2026-05-06T03:54Z
TLE epoch observation values (Epoch: 2026-05-06T03:54:00.026Z)
Latitude
0.00003°
Longitude
-81.93706°
Altitude
553.55 km
Speed
7.585 km/s
True Right ascension
13h 22m 21s
True Declination
0° 00' 00"
Sunlit
Object was in full shadow at epoch
Visualization orbit readout
Latitude
Unknown
Longitude
Unknown
Altitude
Unknown
Speed
Unknown
Apparent Right ascension
Unknown
Apparent Declination
Unknown
Sunlit
N/A
Visualization observer readout
Local Sidereal Time
20:29:00
Azimuth
Unknown
Elevation
Unknown
Doppler factor
Unknown
Orbital elements
Apogee altitude
550.617 km
Perigee altitude
545.771 km
Semi-major axis
6,926.331 km
Eccentricity
0.00035
Inclination
97.4861°
RAAN
200.59°
Arg. of periapsis
287.4417°
True anomaly
72.68106°
Mean anomaly
72.6428°
Eccentric anomaly
72.66193°
Mean motion
3.7652 °/min
Orbital period
95.61 mins
BSTAR
0.00014199
Loading maneuver chart data...
Computing Atmospheric mass density...
Loading historical data...
Loading historical data...
Loading historical data...
Loading historical data...
Loading historical data...
Loading historical data...
Loading historical data...

Documentation

Showing up to 5 results
|